View from above orbital plane
|
View from above satellite
|
Ground track
|
The orbit data is extracted from the following two-line orbital elements,
1 23753U 95072C 21061.34652805 -.00000056 00000-0 -38912-5 0 9997
2 23753 98.9612 87.6266 0002784 310.2741 49.8195 14.26597429310516
Epoch (UTC): | 02 March 2021 08:19:00 |
Eccentricity: | 0.0002784 |
inclination: | 98.9612° |
perigee height: | 801 km |
apogee height: | 805 km |
right ascension of ascending node: | 87.6266° |
argument of perigee: | 310.2741° |
revolutions per day: | 14.26597429 |
mean anomaly at epoch: | 49.8195° |
orbit number at epoch: | 31051 |
The dashed part of the orbit path shows where the satellite is in the earth's shadow,
|
|